Regional Weather Roundup
Issued by NWS

Home | Current Version | Previous Version | Graphics & Text | Print | Product List | Glossary On
Versions: 1 2 3 4 5 6 7 8 9 10 11 12 13 14 15 16 17 18 19 20 21 22 23 24 25 26 27
000
ASUS45 KCYS 201610
RWRWY

WYOMING REGIONAL WEATHER ROUNDUP
NATIONAL WEATHER SERVICE CHEYENNE WY
900 AM MST FRI JAN 20 2017

NOTE:  "FAIR" INDICATES FEW OR NO CLOUDS BELOW 12,000 FEET
WITH NO SIGNIFICANT WEATHER AND/OR OBSTRUCTIONS TO VISIBILITY.

WYZ001-201700-
YELLOWSTONE NATIONAL PARK

CITY           SKY/WX    TMP DP  RH WIND       PRES   REMARKS
LK YELLOWSTONE   N/A     19  18  95 CALM      29.52F
W YELLOWSTONE  NOT AVBL

$$
WYZ002>013-054>058-071-098>099-201700-
NORTHERN WYOMING

CITY           SKY/WX    TMP DP  RH WIND       PRES   REMARKS
JACKSON        MOCLDY    14  12  92 CALM      29.54S
CODY           FAIR      27  20  75 CALM      29.48F
GREYBULL       CLOUDY    26  22  84 SW5       29.51S WCI  20
WORLAND        CLOUDY    26  24  92 W3        29.51S
SHERIDAN       MIX PCPN  35  32  88 SW7       29.48S WCI  29
BUFFALO        LGT SNOW  33  29  85 N3        29.47S VSB 1
GILLETTE       CLOUDY    32  30  92 W8        29.45S WCI  25
HULETT         CLOUDY    32  30  93 SW5       29.45R WCI  27
NEWCASTLE      FAIR      25  19  80 NW8       29.41F WCI  16

$$
WYZ014>020-022>026-101>103-201700-
CENTRAL WYOMING

CITY           SKY/WX    TMP DP  RH WIND       PRES   REMARKS
BIG PINEY      FOG       -2  -6  83 CALM      29.55S VSB 3/4
PINEDALE       FOG       -6  -9  84 NW5       29.55S VSB<1/4 WCI -17
DUBOIS         NOT AVBL
LANDER         CLOUDY    19  15  84 CALM      29.50R
RIVERTON       FAIR      19  12  74 CALM      29.51S
CASPER         LGT SNOW  28  27  96 SW9       29.48S VSB 3/4 WCI  19
DOUGLAS        CLOUDY    32  27  81 NW14      29.46S WCI  22

$$
WYZ021-027>030-104>119-201700-
SOUTHERN WYOMING

CITY           SKY/WX    TMP DP  RH WIND       PRES   REMARKS
EVANSTON       CLOUDY    23  19  85 S3        29.55S
ROCK SPRINGS   CLOUDY    18  15  88 NE5       29.55S FOG     WCI  11
RAWLINS        CLOUDY    24  19  81 W16       29.52S WCI  11
LARAMIE        CLOUDY    23  19  85 NE6       29.45S WCI  16
CHEYENNE       CLOUDY    31  27  85 NW9       29.45F WCI  23
TORRINGTON     FAIR      30  24  78 CALM      29.44R

$$




USA.gov is the U.S. government's official web portal to all federal, state and local government web resources and services.